Location: Adamstown South Public School
(32.9318°S, 151.7012°E)
Time: 18:00:27
(UTC+00:00)

Meteor 1-13 Rocket - Pass Details

Date: 07 June 2020
Orbit: 831 x 912 km, 81.3° (Epoch: 04 July)

Event Time Altitude Azimuth Distance (km) Brightness Sun altitude
Rises 09:00:44 0° 189° (S) 3,409 7.3 -26.0°
Reaches altitude 10° 09:03:10 10° 189° (S) 2,466 6.6 -26.5°
Maximum altitude 09:08:45 84° 275° (W) 848 4.1 -27.7°
Drops below altitude 10° 09:14:18 10° 4° (N) 2,449 6.6 -28.8°
Sets 09:16:41 0° 5° (N) 3,383 7.4 -29.3°
